Погода в Анцио

Италия     41°27′04″N   12°37′30″E
темп.,
°C
ветер,
м/с
пор.,
м/с
влажн.,
%
обл.,
%
осадки,
мм/ч
давл.,
гПа
погр.,
м
13 апреля, вт
вт1323:00+11юз3497100 16.6 1017297
02:00+10з35760 22.3 1017272
05:00+9ююз4674100 0.0 1016329
08:00+11с258421 1.1 1015341
11:00+14зсз686616 0.2 10171347
14:00+15з66637 0.4 10181187
17:00+14зсз66705 0.4 10171014
20:00+11сз34840 0.8 1017182
14 апреля, ср
ср1423:00+9ссз45892 0.0 101998
02:00+7ссз45904 0.0 101999
05:00+6св12885 0.0 101850
08:00+9вюв358565 0.0 1020260
11:00+12юв447262 0.1 1020795
14:00+13ю446392 0.3 1020838
17:00+14ююв445698 0.0 10191081
20:00+10ю11725 0.0 1019128
15 апреля, чт
чт1523:00+8всв227516 0.0 102054
02:00+8в227817 0.0 101944
05:00+7всв22815 0.0 101959
08:00+9всв227621 0.0 1019110
11:00+13ю33584 0.0 10191066
14:00+14ю5452100 0.0 10191184
17:00+13ю3357100 0.0 1018883
20:00+10в0171100 0.0 101878
16 апреля, пт
пт1623:00+9всв2275100 0.0 101843
02:00+9св337799 0.0 101647
05:00+8св2280100 0.0 101545
08:00+10св2274100 0.0 1014104
11:00+12ю4364100 0.0 1014704
14:00+13ююз3361100 0.0 1012946
17:00+12з1265100 0.1 1010614
20:00+11з2370100 0.1 1011127
17 апреля, сб
сб1723:00+9ююв2386100 0.4 1011113
02:00+9всв2386100 1.0 1010164
05:00+9св2383100 0.1 1009111
08:00+9ссв1181100 0.1 1009106
11:00+11ююз107191 0.0 1009542
14:00+14юз436655 0.1 10091044
17:00+13зюз337235 0.4 1009762
20:00+10юз118129 0.7 1009134